To NAV CANADA Home Page Login to a new session Search on AWWS site Disclaimer Vers la page française équivalente Tips FAQ What's new on the site To the Forecasts and Observations / NOTAM section To "File a Flight Plan" website Publications and other links Update of the User's profile FIC Telephone Numbers My Weather Data Folder Route Weather Data Regional Weather Data Local Weather Data To the Forecasts and Observations / NOTAM section
Request Generated 03/19/2019 at 23:42:38 UTC . Weather information available at that time is displayed.

METAR/TAF

MEADOW LAKE/SK    

METAR CYLJ 192300Z 23007KT 15SM FEW250 09/M01 A3001 RMK CI1 CI TR SLP184=
METAR CYLJ 192200Z 23006KT 15SM FEW250 10/00 A3001 RMK CI1 CI TR SLP185=
METAR CYLJ 192100Z 24008KT 15SM FEW250 09/M00 A3003 RMK CI1 CI TR SLP190=

CYLJ - No TAF is issued for this station

Your time UTC time
Weather data provided by Environment Canada and NAV CANADA